📊 Raw Sensor Data

Showing records 37476 to 37500 of 84,913 total

ID Distance (ft) Battery V Battery A Int Temp (°F) Int Humid (%) Ext Temp (°F) Solar V RSSI SNR Time Stamp
47450 14.8 3.93 -5 57 45 57 0.00 -69 8 07/27/2025 12:45 AM
47449 14.8 3.93 -5 57 45 57 0.00 -71 8 07/27/2025 12:30 AM
47448 14.8 3.93 -5 57 45 58 0.10 -69 8 07/27/2025 12:15 AM
47447 14.8 3.93 -5 57 45 58 0.00 -69 8 07/27/2025 12:00 AM
47446 14.8 3.93 -5 58 45 58 0.00 -69 8 07/26/2025 11:45 PM
47445 14.8 3.88 -5 58 45 59 0.00 -71 8 07/26/2025 11:30 PM
47444 14.8 3.88 -5 58 46 59 0.00 -72 8 07/26/2025 11:15 PM
47443 14.8 3.88 -5 58 46 59 0.00 -71 8 07/26/2025 11:00 PM
47442 14.8 3.88 -5 59 46 59 0.00 -70 8 07/26/2025 10:45 PM
47441 14.8 3.89 -5 59 46 60 0.00 -71 7 07/26/2025 10:30 PM
47440 14.8 3.88 -5 59 47 60 0.00 -72 8 07/26/2025 10:15 PM
47439 14.8 3.94 -5 59 47 60 0.00 -70 8 07/26/2025 10:00 PM
47438 14.8 3.89 -5 60 48 60 0.00 -71 8 07/26/2025 09:45 PM
47437 14.7 3.88 -5 60 49 60 0.00 -71 7 07/26/2025 09:30 PM
47436 14.8 3.87 -5 61 50 61 0.00 -70 8 07/26/2025 09:15 PM
47435 14.7 3.86 -5 62 51 61 0.00 -72 8 07/26/2025 09:00 PM
47434 14.8 3.87 -5 63 52 62 0.00 -70 8 07/26/2025 08:45 PM
47433 14.7 3.88 -5 65 53 63 1.20 -70 6 07/26/2025 08:30 PM
47432 14.8 3.93 -32 68 53 64 4.30 -71 8 07/26/2025 08:15 PM
47431 14.7 3.88 0 72 53 67 4.50 -71 7 07/26/2025 08:00 PM
47430 14.8 3.96 0 74 52 69 4.50 -70 8 07/26/2025 07:45 PM
47429 14.8 3.97 0 77 52 71 4.50 -71 8 07/26/2025 07:30 PM
47428 14.9 3.98 0 79 52 72 4.50 -71 7 07/26/2025 07:15 PM
47427 14.9 3.95 23 82 51 74 4.50 -71 8 07/26/2025 07:00 PM
47426 14.9 4.08 28 84 51 76 4.50 -71 8 07/26/2025 06:45 PM